Weather History for Fairbanks Ft. Wainwright, AK

Change the Weather History Date:

Thursday, December 5, 2013

  Actual Average Record
Temperature  
Mean Temperature 10 °F -  
Max Temperature 21 °F 1 °F 35 °F (1997)
Min Temperature 0 °F -6 °F -36 °F (2001)
Degree Days  
Heating Degree Days 54    
Moisture  
Dew Point 6 °F    
Average Humidity 85    
Maximum Humidity 100    
Minimum Humidity 78    
Precipitation  
Precipitation 0.01 in - - ()
Snow  
Snow 0.00 in - - ()
Snow Depth 13.00 in    
Sea Level Pressure  
Sea Level Pressure 30.46 in    
Wind  
Wind Speed 0 mph (East)    
Max Wind Speed 5 mph    
Max Gust Speed -    
Visibility 9 miles    
Events Rain , Snow    
Averages and records for this station are not official NWS values.
T = Trace of Precipitation, MM = Missing Value Source: NWS Daily Summary

Daily Weather History Graph

Daily Weather History Graph

Search for Another Location

Airport:

Trip Planner

Search our weather history database for the weather conditions in past years. The results will help you decide how hot, cold, wet, or windy it might be!

Date:

Astronomy

Dec. 05, 2013 Rise Set
Actual Time 10:31 AM AKST 2:51 PM AKST
Civil Twilight 9:12 AM AKST 4:09 PM AKST
Nautical Twilight 8:03 AM AKST 5:18 PM AKST
Astronomical Twilight 7:02 AM AKST 6:19 PM AKST
Moon 12:07 PM AKST (12/5) 7:20 PM AKST (12/5)
Length of Visible Light 6h 56m
Length of Day
4h 20m
Waxing Crescent, 12% of the Moon is Illuminated
Dec 5
Waxing Crescent
Dec 9
First Quarter
Dec 17
Full
Dec 25
Last Quarter
Jan 1
New

Hourly Weather History & Observations

Time (AKST) Temp. Windchill Dew Point Humidity Pressure Visibility Wind Dir Wind Speed Gust Speed Precip Events Conditions
12:56 AM 1.9 °F - -0.9 °F 88% 30.49 in 10.0 mi Calm Calm - N/A   Clear
1:56 AM 5.0 °F - 1.9 °F 87% 30.48 in 10.0 mi Calm Calm - N/A   Clear
2:56 AM 5.0 °F - 1.0 °F 84% 30.47 in 10.0 mi Calm Calm - N/A   Clear
3:56 AM 3.9 °F - -0.0 °F 84% 30.45 in 10.0 mi Calm Calm - N/A   Clear
4:56 AM -0.0 °F - -4.0 °F 83% 30.45 in 10.0 mi Calm Calm - N/A   Clear
5:56 AM -0.9 °F - -5.1 °F 83% 30.44 in 10.0 mi Calm Calm - N/A   Clear
6:30 AM -0.4 °F - -5.8 °F 78% 30.40 in 10.0 mi Calm Calm - N/A   Mostly Cloudy
6:55 AM 1.4 °F - -4.0 °F 78% 30.45 in 10.0 mi Calm Calm - N/A   Mostly Cloudy
7:55 AM 3.2 °F - -0.4 °F 85% 30.44 in 10.0 mi Calm Calm - N/A   Mostly Cloudy
8:55 AM 3.2 °F - -0.4 °F 85% 30.45 in 10.0 mi Calm Calm - N/A   Mostly Cloudy
9:55 AM 1.4 °F - 1.4 °F 100% 30.45 in 10.0 mi Variable 2.3 mph - N/A   Mostly Cloudy
10:55 AM 1.4 °F -6.2 °F -2.2 °F 85% 30.45 in 10.0 mi ENE 3.5 mph - N/A   Mostly Cloudy
11:55 AM 5.0 °F - 1.4 °F 85% 30.46 in 10.0 mi Calm Calm - N/A   Mostly Cloudy
12:55 PM 8.6 °F - 5.0 °F 85% 30.45 in 10.0 mi Calm Calm - N/A   Mostly Cloudy
1:55 PM 10.4 °F - 6.8 °F 85% 30.45 in 10.0 mi Calm Calm - N/A   Mostly Cloudy
2:55 PM 12.2 °F - 8.6 °F 85% 30.46 in 10.0 mi Calm Calm - N/A   Overcast
3:55 PM 12.2 °F - 8.6 °F 85% 30.47 in 10.0 mi Calm Calm - N/A   Overcast
4:55 PM 14.0 °F - 10.4 °F 86% 30.48 in 7.0 mi Calm Calm - N/A Snow Light Snow
5:35 PM 15.8 °F - 10.4 °F 79% 30.45 in 7.0 mi Calm Calm - N/A   Overcast
5:55 PM 15.8 °F - 12.2 °F 86% 30.50 in 7.0 mi Calm Calm - N/A   Overcast
6:45 PM 17.6 °F - 12.2 °F 79% 30.46 in 7.0 mi Calm Calm - N/A Rain , Snow Light Freezing Rain
6:55 PM 17.6 °F - 12.2 °F 79% 30.51 in 7.0 mi Calm Calm - N/A Rain Light Freezing Rain
7:55 PM 17.6 °F 12.3 °F 14.0 °F 86% 30.50 in 7.0 mi East 3.5 mph - N/A Rain Light Freezing Rain
8:40 PM 17.6 °F 12.3 °F 15.8 °F 93% 30.46 in 7.0 mi East 3.5 mph - N/A   Overcast
8:55 PM 17.6 °F 10.7 °F 15.8 °F 93% 30.49 in 7.0 mi East 4.6 mph - N/A   Overcast
10:56 PM 21.0 °F 16.2 °F 17.1 °F 85% 30.48 in 10.0 mi East 3.5 mph - N/A   Overcast
11:05 PM 21.2 °F - 17.6 °F 86% 30.45 in 10.0 mi Calm Calm - N/A   Overcast
11:33 PM 21.2 °F - 17.6 °F 86% 30.47 in 10.0 mi Calm Calm - N/A   Overcast
11:56 PM 21.9 °F - 18.0 °F 85% 30.50 in 10.0 mi Calm Calm - N/A   Overcast